Weather History for KONL - November, 2012

Change the Weather History Date:

Thursday, November 1, 2012

  Actual Average Record
Temperature  
Mean Temperature 42 °F -  
Max Temperature 47 °F 52 °F 79 °F (1990)
Min Temperature 38 °F 30 °F 8 °F (2002)
Degree Days  
Heating Degree Days 23    
Moisture  
Dew Point 39 °F    
Average Humidity 91    
Maximum Humidity 98    
Minimum Humidity 73    
Precipitation  
Precipitation 0.00 in - - ()
Sea Level Pressure  
Sea Level Pressure 30.00 in    
Wind  
Wind Speed 9 mph (NE)    
Max Wind Speed 18 mph    
Max Gust Speed 22 mph    
Visibility 5 miles    
Events      
Averages and records for this station are not official NWS values.
T = Trace of Precipitation, MM = Missing Value Source: NWS Daily Summary

Daily Weather History Graph

Daily Weather History Graph

Search for Another Location

Airport or City:

Trip Planner

Search our weather history database for the weather conditions in past years. The results will help you decide how hot, cold, wet, or windy it might be!

Date:

Astronomy

Nov. 01, 2012 Rise Set
Actual Time 8:08 AM CDT 6:27 PM CDT
Civil Twilight 7:39 AM CDT 6:56 PM CDT
Nautical Twilight 7:06 AM CDT 7:29 PM CDT
Astronomical Twilight 6:33 AM CDT 8:02 PM CDT
Moon 8:22 PM CDT (11/1) 10:45 AM CDT (11/1)
Length of Visible Light 11h 16m
Length of Day
10h 18m
Waning Gibbous, 93% of the Moon is Illuminated
Nov 1
Waning Gibbous
Nov 6
Last Quarter
Nov 13
New
Nov 20
First Quarter
Nov 28
Full

Hourly Weather History & Observations

Time (CDT) Temp. Windchill Dew Point Humidity Pressure Visibility Wind Dir Wind Speed Gust Speed Precip Events Conditions
12:15 AM 45.9 °F 42.3 °F 37.8 °F 73% 29.97 in 10.0 mi SW 6.9 mph - N/A   Clear
12:35 AM 45.7 °F 42.7 °F 37.4 °F 73% 29.97 in 10.0 mi SW 5.8 mph - N/A   Clear
12:55 AM 44.2 °F 41.0 °F 36.9 °F 75% 29.96 in 10.0 mi SW 5.8 mph - N/A   Clear
1:15 AM 42.8 °F 38.6 °F 36.5 °F 78% 29.96 in 10.0 mi West 6.9 mph - N/A   Clear
1:35 AM 45.1 °F 39.9 °F 37.9 °F 76% 29.97 in 10.0 mi West 10.4 mph - N/A   Clear
1:55 AM 46.9 °F - 39.0 °F 74% 29.97 in 10.0 mi NW 12.7 mph - N/A   Clear
2:15 AM 46.9 °F - 39.6 °F 76% 29.97 in 10.0 mi NW 16.1 mph - N/A   Clear
2:35 AM 46.4 °F 39.2 °F 39.7 °F 78% 29.98 in 10.0 mi NW 18.4 mph - N/A   Clear
2:55 AM 46.4 °F 39.5 °F 41.0 °F 81% 29.99 in 10.0 mi NNW 17.3 mph - N/A   Clear
3:15 AM 45.3 °F 39.0 °F 39.7 °F 81% 30.00 in 10.0 mi NNW 13.8 mph - N/A   Clear
3:35 AM 43.7 °F 38.1 °F 39.4 °F 85% 30.01 in 10.0 mi NW 10.4 mph - N/A   Clear
3:55 AM 43.0 °F 36.8 °F 39.2 °F 86% 30.01 in 10.0 mi NW 11.5 mph - N/A   Clear
4:15 AM 41.9 °F 36.9 °F 38.8 °F 89% 30.01 in 10.0 mi NNW 8.1 mph - N/A   Clear
4:35 AM 41.0 °F 35.2 °F 38.8 °F 92% 30.01 in 10.0 mi NNW 9.2 mph - N/A   Clear
4:55 AM 42.8 °F 35.4 °F 41.0 °F 93% 30.01 in 10.0 mi NNW 15.0 mph 18.4 mph N/A   Mostly Cloudy
5:15 AM 42.4 °F 34.4 °F 40.8 °F 94% 30.01 in 10.0 mi NNW 17.3 mph - N/A   Overcast
5:35 AM 42.8 °F 34.8 °F 41.0 °F 93% 30.02 in 7.0 mi NNW 17.3 mph - N/A   Overcast
5:55 AM 41.9 °F 35.0 °F 41.0 °F 97% 30.02 in 2.5 mi NNW 12.7 mph - N/A   Overcast
6:15 AM 41.9 °F 34.0 °F 41.0 °F 97% 30.03 in 2.5 mi NNW 16.1 mph - N/A   Overcast
6:35 AM 42.1 °F 34.5 °F 41.2 °F 97% 30.04 in 3.0 mi NNW 15.0 mph 18.4 mph N/A   Overcast
6:55 AM 42.8 °F 34.8 °F 41.0 °F 93% 30.04 in 3.0 mi North 17.3 mph 21.9 mph N/A   Overcast
7:15 AM 41.9 °F 34.3 °F 40.3 °F 94% 30.04 in 5.0 mi North 15.0 mph - N/A   Overcast
7:35 AM 41.4 °F 33.0 °F 39.6 °F 93% 30.05 in 5.0 mi NNW 17.3 mph - N/A   Overcast
7:55 AM 41.0 °F 33.5 °F 39.4 °F 94% 30.05 in 4.0 mi North 13.8 mph - N/A   Overcast
8:15 AM 41.0 °F 35.2 °F 39.2 °F 93% 30.06 in 3.0 mi North 9.2 mph - N/A   Overcast
8:35 AM 40.5 °F 34.6 °F 39.4 °F 96% 30.07 in 2.0 mi North 9.2 mph - N/A   Overcast
8:55 AM 41.0 °F 34.7 °F 39.7 °F 95% 30.06 in 2.0 mi North 10.4 mph - N/A   Overcast
9:15 AM 41.0 °F 35.8 °F 40.1 °F 97% 30.07 in 1.8 mi North 8.1 mph - N/A   Overcast
9:35 AM 40.8 °F 34.1 °F 39.7 °F 96% 30.07 in 1.8 mi North 11.5 mph - N/A   Overcast
9:55 AM 40.8 °F 34.5 °F 39.9 °F 97% 30.07 in 1.5 mi North 10.4 mph - N/A   Overcast
10:15 AM 41.0 °F 35.2 °F 39.9 °F 96% 30.07 in 1.2 mi North 9.2 mph - N/A   Overcast
10:35 AM 41.0 °F 36.4 °F 40.3 °F 97% 30.07 in 1.0 mi North 6.9 mph - N/A   Overcast
10:55 AM 41.0 °F 36.4 °F 40.1 °F 97% 30.07 in 1.2 mi North 6.9 mph - N/A   Overcast
11:15 AM 41.2 °F 35.5 °F 39.9 °F 95% 30.07 in 2.0 mi North 9.2 mph - N/A   Overcast
11:35 AM 41.2 °F 36.6 °F 40.1 °F 96% 30.07 in 1.5 mi North 6.9 mph - N/A   Overcast
11:55 AM 41.0 °F 35.8 °F 39.2 °F 93% 30.07 in 1.8 mi North 8.1 mph - N/A   Overcast
12:15 PM 41.2 °F 36.6 °F 39.9 °F 95% 30.06 in 2.0 mi ENE 6.9 mph - N/A   Overcast
12:35 PM 41.5 °F 37.1 °F 39.9 °F 94% 30.06 in 2.5 mi NE 6.9 mph - N/A   Overcast
12:55 PM 41.0 °F 38.0 °F 39.2 °F 93% 30.05 in 3.0 mi NNE 4.6 mph - N/A   Overcast
1:15 PM 41.5 °F 37.1 °F 39.7 °F 93% 30.04 in 3.0 mi NE 6.9 mph - N/A   Overcast
1:35 PM 41.4 °F 37.6 °F 39.7 °F 94% 30.03 in 2.5 mi ENE 5.8 mph - N/A   Overcast
1:55 PM 41.7 °F 39.8 °F 39.6 °F 92% 30.02 in 4.0 mi NE 3.5 mph - N/A   Overcast
2:15 PM 41.0 °F 37.1 °F 39.4 °F 94% 30.02 in 3.0 mi NE 5.8 mph - N/A   Overcast
2:35 PM 40.8 °F 37.8 °F 39.4 °F 95% 30.00 in 3.0 mi ENE 4.6 mph - N/A   Overcast
2:55 PM 41.0 °F 38.0 °F 39.2 °F 93% 30.01 in 5.0 mi East 4.6 mph - N/A   Overcast
3:15 PM 41.0 °F 39.0 °F 39.2 °F 93% 30.00 in 5.0 mi ENE 3.5 mph - N/A   Overcast
3:35 PM 41.7 °F - 39.2 °F 91% 29.99 in 7.0 mi Calm Calm - N/A   Overcast
3:55 PM 42.1 °F 39.2 °F 39.4 °F 90% 29.99 in 5.0 mi East 4.6 mph - N/A   Overcast
4:15 PM 42.4 °F 40.7 °F 39.4 °F 89% 30.00 in 7.0 mi ENE 3.5 mph - N/A   Overcast
4:35 PM 42.4 °F 39.6 °F 39.4 °F 89% 29.99 in 7.0 mi East 4.6 mph - N/A   Overcast
4:55 PM 42.6 °F 39.0 °F 39.2 °F 88% 29.98 in 7.0 mi East 5.8 mph - N/A   Overcast
5:15 PM 41.9 °F - 39.2 °F 90% 29.98 in 7.0 mi Calm Calm - N/A   Overcast
5:35 PM 42.1 °F 38.4 °F 39.4 °F 90% 29.97 in 7.0 mi East 5.8 mph - N/A   Overcast
5:55 PM 42.4 °F 38.1 °F 39.2 °F 88% 29.97 in 7.0 mi ESE 6.9 mph - N/A   Overcast
6:15 PM 42.1 °F 39.2 °F 39.2 °F 90% 29.97 in 7.0 mi East 4.6 mph - N/A   Overcast
6:35 PM 41.9 °F 36.9 °F 39.2 °F 90% 29.96 in 7.0 mi East 8.1 mph - N/A   Overcast
6:55 PM 41.5 °F 37.1 °F 39.2 °F 91% 29.97 in 7.0 mi East 6.9 mph - N/A   Overcast
7:15 PM 41.0 °F 35.2 °F 38.8 °F 92% 29.95 in 7.0 mi East 9.2 mph - N/A   Overcast
7:35 PM 40.5 °F 34.6 °F 38.7 °F 93% 29.95 in 5.0 mi East 9.2 mph - N/A   Overcast
7:55 PM 40.1 °F 34.1 °F 38.5 °F 94% 29.96 in 5.0 mi SE 9.2 mph - N/A   Overcast
8:15 PM 39.6 °F 33.5 °F 38.3 °F 95% 29.95 in 4.0 mi ESE 9.2 mph - N/A   Overcast
8:35 PM 39.6 °F 33.5 °F 38.5 °F 96% 29.95 in 3.0 mi ESE 9.2 mph - N/A   Overcast
8:55 PM 39.4 °F 33.8 °F 38.5 °F 97% 29.95 in 3.0 mi SE 8.1 mph - N/A   Overcast
9:15 PM 39.0 °F 34.0 °F 38.1 °F 97% 29.95 in 3.0 mi SSE 6.9 mph - N/A   Overcast
9:35 PM 39.2 °F 34.2 °F 38.1 °F 96% 29.95 in 4.0 mi SSE 6.9 mph - N/A   Overcast
9:55 PM 39.2 °F 35.9 °F 38.3 °F 97% 29.95 in 2.0 mi SSE 4.6 mph - N/A   Overcast
10:15 PM 39.2 °F 37.0 °F 38.7 °F 98% 29.97 in 1.2 mi SE 3.5 mph - N/A   Overcast
10:35 PM 39.4 °F 35.2 °F 38.7 °F 97% 29.96 in 2.5 mi ESE 5.8 mph - N/A   Overcast
10:55 PM 38.7 °F 34.3 °F 37.8 °F 97% 29.95 in 3.0 mi East 5.8 mph - N/A   Mostly Cloudy
11:15 PM 38.5 °F 32.7 °F 37.6 °F 97% 29.95 in 3.0 mi East 8.1 mph - N/A   Scattered Clouds
11:35 PM 38.7 °F 31.8 °F 37.4 °F 95% 29.94 in 5.0 mi ESE 10.4 mph - N/A   Clear
11:55 PM 39.2 °F 32.5 °F 37.0 °F 92% 29.94 in 7.0 mi ESE 10.4 mph - N/A   Clear